| time (UTC) | temp C | wind direction | speed KPH | gust KPH | rain 1hr cm | rain 24hr cm | rain mn cm | humidity % | barometer mb |
| 20260510131035 | 16 | 355 | 3.2 | 8.0 | 0.00 | 0.00 | 0.00 | 83 | 1016.3 |
| 20260510130533 | 16 | 24 | 1.6 | 8.0 | 0.00 | 0.00 | 0.00 | 83 | 1016.2 |
| 20260510130031 | 16 | 27 | 3.2 | 8.0 | 0.00 | 0.00 | 0.00 | 84 | 1016.0 |
| 20260510125531 | 15 | 27 | 1.6 | 8.0 | 0.00 | 0.00 | 0.00 | 84 | 1015.7 |
| 20260510125029 | 15 | 27 | 3.2 | 8.0 | 0.00 | 0.00 | 0.00 | 84 | 1015.6 |
| 20260510124534 | 15 | 27 | 3.2 | 6.4 | 0.00 | 0.00 | 0.00 | 85 | 1015.5 |
| 20260510124027 | 15 | 27 | 1.6 | 4.8 | 0.00 | 0.00 | 0.00 | 85 | 1015.4 |
| 20260510123527 | 15 | 27 | 1.6 | 4.8 | 0.00 | 0.00 | 0.00 | 85 | 1015.3 |
| 20260510123025 | 15 | 27 | 1.6 | 4.8 | 0.00 | 0.00 | 0.00 | 85 | 1015.3 |
| 20260510122523 | 15 | 27 | 1.6 | 4.8 | 0.00 | 0.00 | 0.00 | 85 | 1015.1 |
| 20260510122022 | 14 | 27 | 1.6 | 4.8 | 0.00 | 0.00 | 0.00 | 85 | 1015.0 |
| 20260510121523 | 14 | 27 | 1.6 | 4.8 | 0.00 | 0.00 | 0.00 | 85 | 1014.9 |
| 20260510121021 | 14 | 27 | 0.0 | 4.8 | 0.00 | 0.00 | 0.00 | 85 | 1014.9 |
| 20260510120524 | 14 | 27 | 1.6 | 4.8 | 0.00 | 0.00 | 0.00 | 85 | 1015.0 |
| 20260510120021 | 14 | 27 | 0.0 | 1.6 | 0.00 | 0.00 | 0.00 | 86 | 1014.9 |
| 20260510115522 | 14 | 27 | 0.0 | 3.2 | 0.00 | 0.00 | 0.00 | 85 | 1014.8 |
| 20260510115018 | 14 | 27 | 0.0 | 4.8 | 0.00 | 0.00 | 0.00 | 85 | 1014.7 |
| 20260510114516 | 14 | 27 | 1.6 | 4.8 | 0.00 | 0.00 | 0.00 | 85 | 1014.5 |
| 20260510114016 | 14 | 27 | 1.6 | 8.0 | 0.00 | 0.00 | 0.00 | 84 | 1014.4 |
| 20260510113514 | 14 | 27 | 1.6 | 8.0 | 0.00 | 0.00 | 0.00 | 84 | 1014.1 |
| 20260510113012 | 14 | 27 | 1.6 | 4.8 | 0.00 | 0.00 | 0.00 | 83 | 1013.9 |
| 20260510112515 | 15 | 27 | 0.0 | 0.0 | 0.00 | 0.00 | 0.00 | 83 | 1013.7 |
| 20260510112011 | 15 | 27 | 0.0 | 0.0 | 0.00 | 0.00 | 0.00 | 83 | 1013.7 |
| 20260510111511 | 15 | 27 | 0.0 | 0.0 | 0.00 | 0.00 | 0.00 | 82 | 1013.7 |
| 20260510111009 | 15 | 27 | 0.0 | 0.0 | 0.00 | 0.00 | 0.00 | 82 | 1013.7 |
| 20260510110509 | 15 | 27 | 0.0 | 0.0 | 0.00 | 0.00 | 0.00 | 82 | 1013.6 |
| 20260510110024 | 15 | 27 | 0.0 | 0.0 | 0.00 | 0.00 | 0.00 | 82 | 1013.5 |
| 20260510105508 | 15 | 27 | 0.0 | 0.0 | 0.00 | 0.00 | 0.00 | 81 | 1013.5 |
| 20260510105011 | 15 | 27 | 0.0 | 0.0 | 0.00 | 0.00 | 0.00 | 81 | 1013.4 |
| 20260510104507 | 15 | 27 | 0.0 | 0.0 | 0.00 | 0.00 | 0.00 | 81 | 1013.5 |
| 20260510104006 | 15 | 27 | 0.0 | 0.0 | 0.00 | 0.00 | 0.00 | 80 | 1013.4 |
| 20260510103507 | 15 | 27 | 0.0 | 0.0 | 0.00 | 0.00 | 0.00 | 81 | 1013.5 |
| 20260510103007 | 15 | 27 | 0.0 | 0.0 | 0.00 | 0.00 | 0.00 | 81 | 1013.5 |
| 20260510102512 | 15 | 27 | 0.0 | 0.0 | 0.00 | 0.00 | 0.00 | 81 | 1013.4 |
| 20260510102007 | 15 | 27 | 0.0 | 0.0 | 0.00 | 0.00 | 0.00 | 81 | 1013.5 |
| 20260510101506 | 15 | 27 | 0.0 | 0.0 | 0.00 | 0.00 | 0.00 | 80 | 1013.5 |
| 20260510101006 | 16 | 27 | 0.0 | 0.0 | 0.00 | 0.00 | 0.00 | 80 | 1013.5 |
| 20260510100508 | 16 | 27 | 0.0 | 0.0 | 0.00 | 0.00 | 0.00 | 79 | 1013.4 |
| 20260510100006 | 16 | 27 | 0.0 | 0.0 | 0.00 | 0.00 | 0.00 | 79 | 1013.5 |
| 20260510095506 | 16 | 27 | 0.0 | 0.0 | 0.00 | 0.00 | 0.00 | 78 | 1013.5 |
| 20260510095006 | 16 | 27 | 0.0 | 0.0 | 0.00 | 0.00 | 0.00 | 79 | 1013.5 |
| 20260510094504 | 16 | 27 | 0.0 | 0.0 | 0.00 | 0.00 | 0.00 | 78 | 1013.5 |
| 20260510094004 | 16 | 27 | 0.0 | 0.0 | 0.00 | 0.00 | 0.00 | 78 | 1013.5 |
| 20260510093504 | 16 | 27 | 0.0 | 0.0 | 0.00 | 0.00 | 0.00 | 78 | 1013.5 |
| 20260510093003 | 16 | 27 | 0.0 | 0.0 | 0.00 | 0.00 | 0.00 | 77 | 1013.4 |
| 20260510092502 | 16 | 27 | 0.0 | 0.0 | 0.00 | 0.00 | 0.00 | 76 | 1013.3 |
| 20260510092000 | 16 | 27 | 0.0 | 0.0 | 0.00 | 0.00 | 0.00 | 76 | 1013.1 |
| 20260510091600 | 16 | 27 | 0.0 | 0.0 | 0.00 | 0.00 | 0.00 | 77 | 1012.9 |
| 20260510091100 | 16 | 27 | 0.0 | 0.0 | 0.00 | 0.00 | 0.00 | 76 | 1012.8 |
| 20260510090559 | 16 | 27 | 0.0 | 0.0 | 0.00 | 0.00 | 0.00 | 76 | 1012.8 |
| 20260510090116 | 16 | 27 | 0.0 | 0.0 | 0.00 | 0.00 | 0.00 | 77 | 1012.7 |
| 20260510085559 | 16 | 27 | 0.0 | 0.0 | 0.00 | 0.00 | 0.00 | 76 | 1012.8 |
| 20260510085058 | 16 | 27 | 0.0 | 0.0 | 0.00 | 0.00 | 0.00 | 76 | 1012.6 |
| 20260510084558 | 16 | 27 | 0.0 | 0.0 | 0.00 | 0.00 | 0.00 | 76 | 1012.6 |
| 20260510084058 | 16 | 27 | 0.0 | 0.0 | 0.00 | 0.00 | 0.00 | 75 | 1012.4 |
| 20260510083557 | 16 | 27 | 0.0 | 0.0 | 0.00 | 0.00 | 0.00 | 74 | 1012.4 |
| 20260510083110 | 16 | 27 | 0.0 | 0.0 | 0.00 | 0.00 | 0.00 | 74 | 1012.4 |
| 20260510082556 | 16 | 27 | 0.0 | 0.0 | 0.00 | 0.00 | 0.00 | 74 | 1012.6 |
| 20260510082056 | 16 | 27 | 0.0 | 0.0 | 0.00 | 0.00 | 0.00 | 74 | 1012.5 |
| 20260510081609 | 16 | 27 | 0.0 | 0.0 | 0.00 | 0.00 | 0.00 | 74 | 1012.3 |
| 20260510081056 | 16 | 27 | 0.0 | 4.8 | 0.00 | 0.00 | 0.00 | 76 | 1012.4 |
| 20260510080556 | 16 | 27 | 0.0 | 4.8 | 0.00 | 0.00 | 0.00 | 76 | 1012.5 |
| 20260510075555 | 16 | 27 | 0.0 | 4.8 | 0.00 | 0.00 | 0.00 | 77 | 1012.4 |
| 20260510075055 | 16 | 29 | 3.2 | 4.8 | 0.00 | 0.00 | 0.00 | 76 | 1012.3 |
| 20260510074603 | 16 | 121 | 1.6 | 3.2 | 0.00 | 0.00 | 0.00 | 77 | 1012.2 |
| 20260510074056 | 16 | 121 | 0.0 | 4.8 | 0.00 | 0.00 | 0.00 | 77 | 1012.2 |
| 20260510073554 | 16 | 121 | 1.6 | 4.8 | 0.00 | 0.00 | 0.00 | 78 | 1012.1 |
| 20260510073054 | 16 | 121 | 0.0 | 0.0 | 0.00 | 0.00 | 0.00 | 78 | 1011.9 |
| 20260510072553 | 16 | 121 | 0.0 | 0.0 | 0.00 | 0.00 | 0.00 | 77 | 1011.9 |
| 20260510072056 | 16 | 121 | 0.0 | 0.0 | 0.00 | 0.00 | 0.00 | 77 | 1011.8 |
| 20260510071552 | 16 | 121 | 0.0 | 0.0 | 0.00 | 0.00 | 0.00 | 76 | 1011.9 |
| 20260510071053 | 16 | 121 | 0.0 | 3.2 | 0.00 | 0.00 | 0.00 | 76 | 1011.9 |
| 20260510070551 | 16 | 121 | 0.0 | 3.2 | 0.00 | 0.00 | 0.00 | 77 | 1011.9 |
| 20260510070053 | 16 | 121 | 1.6 | 3.2 | 0.00 | 0.00 | 0.00 | 77 | 1011.6 |
| 20260510065555 | 16 | 121 | 1.6 | 3.2 | 0.00 | 0.00 | 0.00 | 77 | 1011.5 |
| 20260510065052 | 16 | 121 | 0.0 | 1.6 | 0.00 | 0.00 | 0.00 | 75 | 1011.3 |
| 20260510064600 | 16 | 121 | 0.0 | 3.2 | 0.00 | 0.00 | 0.00 | 76 | 1011.2 |
| 20260510064046 | 15 | 121 | 0.0 | 3.2 | 0.00 | 0.00 | 0.00 | 78 | 1011.2 |
| 20260510063545 | 15 | 121 | 0.0 | 3.2 | 0.00 | 0.00 | 0.00 | 80 | 1011.3 |
| 20260510063044 | 15 | 121 | 0.0 | 0.0 | 0.00 | 0.00 | 0.00 | 81 | 1011.5 |
| 20260510062543 | 15 | 121 | 0.0 | 0.0 | 0.00 | 0.00 | 0.00 | 83 | 1011.8 |
| 20260510062041 | 15 | 121 | 0.0 | 0.0 | 0.00 | 0.00 | 0.00 | 83 | 1012.2 |
| 20260510061541 | 15 | 121 | 0.0 | 0.0 | 0.00 | 0.00 | 0.00 | 83 | 1012.3 |
| 20260510061041 | 15 | 121 | 0.0 | 0.0 | 0.00 | 0.00 | 0.00 | 82 | 1012.3 |
| 20260510060539 | 15 | 121 | 0.0 | 0.0 | 0.00 | 0.00 | 0.00 | 83 | 1012.4 |
| 20260510060041 | 15 | 121 | 0.0 | 0.0 | 0.00 | 0.00 | 0.00 | 82 | 1012.5 |
| 20260510055538 | 15 | 121 | 0.0 | 0.0 | 0.00 | 0.00 | 0.00 | 82 | 1012.5 |
| 20260510055037 | 15 | 121 | 0.0 | 0.0 | 0.00 | 0.00 | 0.00 | 82 | 1012.7 |
| 20260510054537 | 15 | 121 | 0.0 | 0.0 | 0.00 | 0.00 | 0.00 | 82 | 1012.7 |
| 20260510054035 | 15 | 121 | 0.0 | 0.0 | 0.00 | 0.00 | 0.00 | 81 | 1012.7 |
| 20260510053535 | 15 | 121 | 0.0 | 0.0 | 0.00 | 0.00 | 0.00 | 81 | 1012.7 |
| 20260510053035 | 15 | 121 | 0.0 | 0.0 | 0.00 | 0.00 | 0.00 | 81 | 1012.7 |
| 20260510052536 | 15 | 121 | 0.0 | 0.0 | 0.00 | 0.00 | 0.00 | 81 | 1012.6 |
| 20260510052034 | 15 | 121 | 0.0 | 0.0 | 0.00 | 0.00 | 0.00 | 81 | 1012.7 |
| 20260510051534 | 15 | 121 | 0.0 | 0.0 | 0.00 | 0.00 | 0.00 | 81 | 1012.7 |
| 20260510051033 | 16 | 121 | 0.0 | 0.0 | 0.00 | 0.00 | 0.00 | 80 | 1012.7 |
| 20260510050533 | 16 | 121 | 0.0 | 0.0 | 0.00 | 0.00 | 0.00 | 80 | 1012.6 |
| 20260510050031 | 16 | 121 | 0.0 | 0.0 | 0.00 | 0.00 | 0.00 | 80 | 1012.5 |
| 20260510045534 | 16 | 121 | 0.0 | 0.0 | 0.00 | 0.00 | 0.00 | 80 | 1012.5 |
| 20260510045030 | 16 | 121 | 0.0 | 0.0 | 0.00 | 0.00 | 0.00 | 80 | 1012.4 |
| 20260510044535 | 16 | 121 | 0.0 | 0.0 | 0.00 | 0.00 | 0.00 | 79 | 1012.3 |
| 20260510044028 | 16 | 121 | 0.0 | 0.0 | 0.00 | 0.00 | 0.00 | 79 | 1012.2 |
| 20260510043528 | 16 | 121 | 0.0 | 0.0 | 0.00 | 0.00 | 0.00 | 78 | 1012.2 |
| 20260510043028 | 16 | 121 | 0.0 | 0.0 | 0.00 | 0.00 | 0.00 | 78 | 1012.2 |
| 20260510042529 | 16 | 121 | 0.0 | 0.0 | 0.00 | 0.00 | 0.00 | 77 | 1012.2 |
| 20260510042028 | 16 | 122 | 0.0 | 0.0 | 0.00 | 0.00 | 0.00 | 77 | 1012.2 |
| 20260510041529 | 16 | 121 | 0.0 | 0.0 | 0.00 | 0.00 | 0.00 | 77 | 1012.2 |
| 20260510041030 | 16 | 122 | 0.0 | 0.0 | 0.00 | 0.00 | 0.00 | 76 | 1012.2 |
| 20260510040529 | 16 | 122 | 0.0 | 0.0 | 0.00 | 0.00 | 0.00 | 76 | 1012.3 |
| 20260510040027 | 16 | 122 | 0.0 | 0.0 | 0.00 | 0.00 | 0.00 | 75 | 1012.3 |
| 20260510035526 | 17 | 122 | 0.0 | 0.0 | 0.00 | 0.00 | 0.00 | 75 | 1012.3 |
| 20260510035026 | 17 | 122 | 0.0 | 0.0 | 0.00 | 0.00 | 0.00 | 74 | 1012.2 |
| 20260510034524 | 17 | 122 | 0.0 | 0.0 | 0.00 | 0.00 | 0.00 | 73 | 1012.1 |
| 20260510034024 | 17 | 122 | 0.0 | 0.0 | 0.00 | 0.00 | 0.00 | 73 | 1012.0 |
| 20260510033523 | 17 | 122 | 0.0 | 0.0 | 0.00 | 0.00 | 0.00 | 73 | 1012.0 |
| 20260510033023 | 17 | 122 | 0.0 | 4.8 | 0.00 | 0.00 | 0.00 | 72 | 1011.9 |
| 20260510032522 | 17 | 122 | 3.2 | 4.8 | 0.00 | 0.00 | 0.00 | 71 | 1011.7 |
| 20260510032021 | 17 | 122 | 0.0 | 0.0 | 0.00 | 0.00 | 0.00 | 70 | 1011.5 |
| 20260510031524 | 18 | 122 | 0.0 | 0.0 | 0.00 | 0.00 | 0.00 | 69 | 1011.4 |
| 20260510031020 | 18 | 122 | 0.0 | 0.0 | 0.00 | 0.00 | 0.00 | 69 | 1011.4 |
| 20260510030521 | 18 | 122 | 0.0 | 0.0 | 0.00 | 0.00 | 0.00 | 69 | 1011.3 |
| 20260510030031 | 18 | 122 | 0.0 | 0.0 | 0.00 | 0.00 | 0.00 | 68 | 1011.3 |
| 20260510025519 | 18 | 122 | 0.0 | 0.0 | 0.00 | 0.00 | 0.00 | 68 | 1011.2 |
| 20260510025020 | 18 | 122 | 0.0 | 0.0 | 0.00 | 0.00 | 0.00 | 66 | 1011.2 |
| 20260510024519 | 19 | 122 | 0.0 | 0.0 | 0.00 | 0.00 | 0.00 | 65 | 1011.2 |
| 20260510024018 | 19 | 122 | 0.0 | 0.0 | 0.00 | 0.00 | 0.00 | 65 | 1011.1 |
| 20260510023522 | 20 | 122 | 0.0 | 0.0 | 0.00 | 0.00 | 0.00 | 64 | 1011.1 |
| 20260510023018 | 20 | 122 | 0.0 | 0.0 | 0.00 | 0.00 | 0.00 | 64 | 1011.0 |
| 20260510022518 | 20 | 122 | 0.0 | 0.0 | 0.00 | 0.00 | 0.00 | 59 | 1010.9 |
| 20260510022017 | 20 | 122 | 0.0 | 0.0 | 0.00 | 0.00 | 0.00 | 58 | 1010.7 |
| 20260510021519 | 20 | 122 | 0.0 | 0.0 | 0.00 | 0.00 | 0.00 | 59 | 1010.5 |
| 20260510021017 | 20 | 122 | 0.0 | 0.0 | 0.00 | 0.00 | 0.00 | 59 | 1010.4 |
| 20260510020517 | 21 | 122 | 0.0 | 0.0 | 0.00 | 0.00 | 0.00 | 58 | 1010.2 |
| 20260510020018 | 21 | 122 | 0.0 | 0.0 | 0.00 | 0.00 | 0.00 | 58 | 1010.1 |
| 20260510015520 | 21 | 122 | 0.0 | 0.0 | 0.00 | 0.00 | 0.00 | 60 | 1010.0 |
| 20260510015017 | 21 | 122 | 0.0 | 0.0 | 0.00 | 0.00 | 0.00 | 58 | 1009.9 |
| 20260510014516 | 22 | 122 | 0.0 | 0.0 | 0.00 | 0.00 | 0.00 | 51 | 1009.9 |
| 20260510014016 | 22 | 122 | 0.0 | 0.0 | 0.00 | 0.00 | 0.00 | 51 | 1009.7 |
| 20260510013517 | 22 | 122 | 0.0 | 0.0 | 0.00 | 0.00 | 0.00 | 52 | 1009.6 |
| 20260510013016 | 22 | 122 | 0.0 | 0.0 | 0.00 | 0.00 | 0.00 | 53 | 1009.6 |
| 20260510012515 | 23 | 122 | 0.0 | 0.0 | 0.00 | 0.00 | 0.00 | 54 | 1009.5 |
| 20260510012015 | 23 | 122 | 0.0 | 0.0 | 0.00 | 0.00 | 0.00 | 54 | 1009.5 |
| 20260510011516 | 23 | 122 | 0.0 | 0.0 | 0.00 | 0.00 | 0.00 | 48 | 1009.3 |
| 20260510011017 | 23 | 122 | 0.0 | 0.0 | 0.00 | 0.00 | 0.00 | 48 | 1009.1 |
| 20260510010515 | 23 | 122 | 0.0 | 0.0 | 0.00 | 0.00 | 0.00 | 49 | 1009.1 |
| 20260510010017 | 23 | 122 | 0.0 | 0.0 | 0.00 | 0.00 | 0.00 | 49 | 1009.1 |
| 20260510005514 | 24 | 122 | 0.0 | 0.0 | 0.00 | 0.05 | 0.00 | 51 | 1009.1 |
| 20260510005014 | 24 | 122 | 0.0 | 0.0 | 0.00 | 0.05 | 0.00 | 50 | 1009.0 |
| 20260510004513 | 24 | 122 | 0.0 | 0.0 | 0.00 | 0.05 | 0.00 | 48 | 1008.9 |
| 20260510004019 | 24 | 122 | 0.0 | 0.0 | 0.00 | 0.05 | 0.00 | 46 | 1008.9 |
| 20260510003513 | 25 | 122 | 0.0 | 0.0 | 0.00 | 0.05 | 0.00 | 44 | 1008.9 |
| 20260510003022 | 25 | 122 | 0.0 | 0.0 | 0.00 | 0.05 | 0.00 | 43 | 1008.9 |
| 20260510002513 | 25 | 122 | 0.0 | 0.0 | 0.00 | 0.05 | 0.00 | 43 | 1008.8 |
| 20260510002013 | 25 | 122 | 0.0 | 0.0 | 0.00 | 0.05 | 0.00 | 43 | 1008.8 |
| 20260510001512 | 25 | 122 | 0.0 | 0.0 | 0.00 | 0.05 | 0.00 | 45 | 1008.9 |
| 20260510001012 | 25 | 122 | 0.0 | 0.0 | 0.00 | 0.05 | 0.00 | 44 | 1008.9 |
| 20260510000512 | 25 | 122 | 0.0 | 0.0 | 0.00 | 0.05 | 0.00 | 43 | 1009.0 |
| 20260510000011 | 25 | 122 | 0.0 | 0.0 | 0.00 | 0.05 | 0.00 | 45 | 1009.0 |
| 20260509235512 | 25 | 122 | 0.0 | 0.0 | 0.00 | 0.05 | 0.00 | 44 | 1009.1 |
| 20260509235010 | 26 | 122 | 0.0 | 0.0 | 0.00 | 0.05 | 0.00 | 42 | 1009.1 |
| 20260509234513 | 26 | 122 | 0.0 | 0.0 | 0.00 | 0.05 | 0.00 | 41 | 1009.2 |
| 20260509234012 | 26 | 122 | 0.0 | 0.0 | 0.00 | 0.05 | 0.00 | 40 | 1009.1 |
| 20260509233509 | 26 | 122 | 0.0 | 0.0 | 0.00 | 0.05 | 0.00 | 40 | 1009.2 |
| 20260509233020 | 26 | 122 | 0.0 | 0.0 | 0.00 | 0.05 | 0.00 | 39 | 1009.2 |
| 20260509232513 | 26 | 122 | 0.0 | 0.0 | 0.00 | 0.05 | 0.00 | 38 | 1009.3 |
| 20260509232009 | 26 | 122 | 0.0 | 0.0 | 0.00 | 0.05 | 0.00 | 40 | 1009.2 |
| 20260509231509 | 26 | 126 | 0.0 | 0.0 | 0.00 | 0.05 | 0.00 | 40 | 1009.2 |
| 20260509231008 | 26 | 126 | 0.0 | 0.0 | 0.00 | 0.05 | 0.00 | 39 | 1009.2 |
| 20260509230508 | 27 | 126 | 0.0 | 0.0 | 0.00 | 0.05 | 0.00 | 40 | 1009.2 |
| 20260509230008 | 27 | 126 | 0.0 | 0.0 | 0.00 | 0.05 | 0.00 | 39 | 1009.2 |
| 20260509225508 | 27 | 126 | 0.0 | 0.0 | 0.00 | 0.05 | 0.00 | 39 | 1009.3 |
| 20260509225009 | 27 | 126 | 0.0 | 0.0 | 0.00 | 0.05 | 0.00 | 38 | 1009.3 |
| 20260509224507 | 27 | 126 | 0.0 | 0.0 | 0.00 | 0.05 | 0.00 | 38 | 1009.3 |
| 20260509224008 | 27 | 126 | 0.0 | 0.0 | 0.00 | 0.05 | 0.00 | 41 | 1009.2 |
| 20260509223505 | 27 | 126 | 0.0 | 3.2 | 0.00 | 0.05 | 0.00 | 40 | 1009.1 |
| 20260509223005 | 27 | 126 | 0.0 | 3.2 | 0.00 | 0.05 | 0.00 | 39 | 1009.2 |
| 20260509222505 | 27 | 126 | 0.0 | 0.0 | 0.00 | 0.05 | 0.00 | 41 | 1009.3 |
| 20260509222004 | 27 | 126 | 0.0 | 0.0 | 0.00 | 0.05 | 0.00 | 38 | 1009.3 |
| 20260509221506 | 27 | 126 | 0.0 | 0.0 | 0.00 | 0.05 | 0.00 | 39 | 1009.3 |
| 20260509221003 | 27 | 126 | 0.0 | 0.0 | 0.00 | 0.05 | 0.00 | 38 | 1009.4 |
| 20260509220502 | 27 | 126 | 0.0 | 0.0 | 0.00 | 0.05 | 0.00 | 39 | 1009.4 |
| 20260509220002 | 28 | 126 | 0.0 | 0.0 | 0.00 | 0.05 | 0.00 | 37 | 1009.6 |
| 20260509215502 | 28 | 126 | 0.0 | 0.0 | 0.00 | 0.05 | 0.00 | 39 | 1009.6 |
| 20260509215004 | 28 | 126 | 0.0 | 0.0 | 0.00 | 0.05 | 0.00 | 36 | 1009.5 |
| 20260509214500 | 28 | 126 | 0.0 | 0.0 | 0.00 | 0.05 | 0.00 | 37 | 1009.5 |
| 20260509214101 | 28 | 126 | 0.0 | 0.0 | 0.00 | 0.05 | 0.00 | 37 | 1009.5 |
| 20260509213600 | 28 | 126 | 0.0 | 1.6 | 0.00 | 0.05 | 0.00 | 37 | 1009.5 |
| 20260509213100 | 29 | 132 | 0.0 | 3.2 | 0.00 | 0.05 | 0.00 | 37 | 1009.5 |
| 20260509212558 | 29 | 132 | 1.6 | 4.8 | 0.00 | 0.05 | 0.00 | 37 | 1009.6 |
| 20260509212058 | 30 | 129 | 0.0 | 4.8 | 0.00 | 0.05 | 0.00 | 36 | 1009.6 |
| 20260509211559 | 30 | 129 | 0.0 | 0.0 | 0.00 | 0.05 | 0.00 | 37 | 1009.6 |
| 20260509211058 | 30 | 129 | 0.0 | 0.0 | 0.00 | 0.05 | 0.00 | 33 | 1009.6 |
| 20260509210557 | 30 | 129 | 0.0 | 0.0 | 0.00 | 0.05 | 0.00 | 35 | 1009.7 |
| 20260509210057 | 30 | 129 | 0.0 | 3.2 | 0.00 | 0.05 | 0.00 | 33 | 1009.8 |
| 20260509205556 | 30 | 129 | 0.0 | 3.2 | 0.00 | 0.05 | 0.00 | 34 | 1009.9 |
| 20260509205058 | 30 | 129 | 0.0 | 1.6 | 0.00 | 0.05 | 0.00 | 33 | 1009.9 |
| 20260509204556 | 29 | 129 | 0.0 | 1.6 | 0.00 | 0.05 | 0.00 | 32 | 1009.9 |
| 20260509204051 | 29 | 128 | 0.0 | 1.6 | 0.00 | 0.05 | 0.00 | 33 | 1010.0 |
| 20260509203550 | 29 | 128 | 0.0 | 1.6 | 0.00 | 0.05 | 0.00 | 34 | 1010.1 |
| 20260509203114 | 29 | 128 | 0.0 | 1.6 | 0.00 | 0.05 | 0.00 | 34 | 1010.1 |
| 20260509202548 | 29 | 128 | 0.0 | 0.0 | 0.00 | 0.05 | 0.00 | 34 | 1010.1 |
| 20260509202050 | 29 | 128 | 0.0 | 0.0 | 0.00 | 0.05 | 0.00 | 34 | 1010.3 |
| 20260509201549 | 29 | 128 | 0.0 | 3.2 | 0.00 | 0.05 | 0.00 | 34 | 1010.3 |
| 20260509201047 | 29 | 128 | 0.0 | 0.0 | 0.00 | 0.05 | 0.00 | 33 | 1010.3 |
| 20260509200546 | 28 | 128 | 0.0 | 0.0 | 0.00 | 0.05 | 0.00 | 35 | 1010.4 |
| 20260509200054 | 28 | 128 | 0.0 | 1.6 | 0.00 | 0.05 | 0.00 | 33 | 1010.3 |
| 20260509195543 | 28 | 128 | 0.0 | 1.6 | 0.00 | 0.05 | 0.00 | 33 | 1010.3 |
| 20260509195043 | 28 | 128 | 0.0 | 3.2 | 0.00 | 0.05 | 0.00 | 36 | 1010.3 |
| 20260509194543 | 28 | 128 | 0.0 | 3.2 | 0.00 | 0.05 | 0.00 | 34 | 1010.3 |
| 20260509194043 | 28 | 128 | 0.0 | 4.8 | 0.00 | 0.05 | 0.00 | 38 | 1010.3 |
| 20260509193543 | 28 | 52 | 0.0 | 4.8 | 0.00 | 0.05 | 0.00 | 40 | 1010.3 |
| 20260509193044 | 28 | 5 | 1.6 | 3.2 | 0.00 | 0.05 | 0.00 | 44 | 1010.4 |
| 20260509192541 | 27 | 5 | 0.0 | 3.2 | 0.00 | 0.05 | 0.00 | 40 | 1010.5 |
| 20260509192041 | 27 | 13 | 0.0 | 3.2 | 0.00 | 0.05 | 0.00 | 39 | 1010.5 |
| 20260509191548 | 27 | 10 | 0.0 | 8.0 | 0.00 | 0.05 | 0.00 | 41 | 1010.6 |
| 20260509191038 | 27 | 10 | 0.0 | 8.0 | 0.00 | 0.05 | 0.00 | 39 | 1010.6 |
| 20260509190536 | 27 | 50 | 0.0 | 4.8 | 0.00 | 0.05 | 0.00 | 42 | 1010.7 |
| 20260509190035 | 26 | 351 | 0.0 | 3.2 | 0.00 | 0.05 | 0.00 | 44 | 1010.7 |
| 20260509185534 | 26 | 351 | 0.0 | 3.2 | 0.00 | 0.05 | 0.00 | 43 | 1010.7 |
| 20260509185034 | 26 | 347 | 0.0 | 4.8 | 0.00 | 0.05 | 0.00 | 43 | 1010.8 |
| 20260509184535 | 26 | 347 | 0.0 | 4.8 | 0.00 | 0.05 | 0.00 | 44 | 1010.8 |
| 20260509184031 | 26 | 351 | 0.0 | 3.2 | 0.00 | 0.05 | 0.00 | 45 | 1010.9 |
| 20260509183531 | 26 | 36 | 0.0 | 1.6 | 0.00 | 0.05 | 0.00 | 45 | 1010.9 |
| 20260509183031 | 26 | 36 | 0.0 | 0.0 | 0.00 | 0.05 | 0.00 | 46 | 1010.9 |
| 20260509182530 | 26 | 36 | 0.0 | 0.0 | 0.00 | 0.05 | 0.00 | 44 | 1010.9 |
| 20260509182029 | 26 | 9 | 0.0 | 1.6 | 0.00 | 0.05 | 0.00 | 47 | 1010.9 |
| 20260509181531 | 26 | 9 | 0.0 | 3.2 | 0.00 | 0.05 | 0.00 | 51 | 1010.9 |
| 20260509181028 | 26 | 9 | 0.0 | 3.2 | 0.00 | 0.05 | 0.00 | 53 | 1010.8 |
| 20260509180527 | 26 | 220 | 0.0 | 0.0 | 0.00 | 0.05 | 0.00 | 54 | 1010.9 |
| 20260509180028 | 26 | 220 | 0.0 | 3.2 | 0.00 | 0.05 | 0.00 | 56 | 1010.9 |
| 20260509175527 | 26 | 220 | 0.0 | 3.2 | 0.00 | 0.05 | 0.00 | 56 | 1011.0 |
| 20260509175027 | 26 | 220 | 1.6 | 4.8 | 0.00 | 0.05 | 0.00 | 55 | 1011.0 |
| 20260509174527 | 26 | 220 | 0.0 | 4.8 | 0.00 | 0.05 | 0.00 | 54 | 1011.0 |
| 20260509174026 | 26 | 219 | 0.0 | 3.2 | 0.00 | 0.05 | 0.00 | 54 | 1011.1 |
| 20260509173525 | 26 | 219 | 0.0 | 3.2 | 0.00 | 0.05 | 0.00 | 55 | 1011.1 |
| 20260509173025 | 26 | 220 | 0.0 | 3.2 | 0.00 | 0.05 | 0.00 | 56 | 1011.2 |
| 20260509172524 | 26 | 220 | 0.0 | 3.2 | 0.00 | 0.05 | 0.00 | 55 | 1011.2 |
| 20260509172022 | 26 | 221 | 0.0 | 1.6 | 0.00 | 0.05 | 0.00 | 58 | 1011.2 |
| 20260509171521 | 25 | 221 | 0.0 | 1.6 | 0.00 | 0.05 | 0.00 | 58 | 1011.3 |
| 20260509171020 | 25 | 221 | 0.0 | 3.2 | 0.00 | 0.05 | 0.00 | 58 | 1011.2 |
| 20260509170519 | 25 | 221 | 0.0 | 3.2 | 0.00 | 0.05 | 0.00 | 60 | 1011.2 |
| 20260509170018 | 25 | 221 | 0.0 | 3.2 | 0.00 | 0.05 | 0.00 | 60 | 1011.2 |
| 20260509165516 | 25 | 221 | 0.0 | 3.2 | 0.00 | 0.05 | 0.00 | 60 | 1011.3 |
| 20260509165017 | 25 | 221 | 0.0 | 3.2 | 0.00 | 0.05 | 0.00 | 63 | 1011.3 |
| 20260509164513 | 25 | 221 | 0.0 | 4.8 | 0.00 | 0.05 | 0.00 | 65 | 1011.4 |
| 20260509164012 | 24 | 221 | 1.6 | 4.8 | 0.00 | 0.05 | 0.00 | 66 | 1011.3 |
| 20260509163513 | 24 | 220 | 0.0 | 1.6 | 0.00 | 0.05 | 0.00 | 68 | 1011.2 |
| 20260509163010 | 23 | 220 | 0.0 | 3.2 | 0.00 | 0.05 | 0.00 | 69 | 1011.2 |
| 20260509162508 | 23 | 220 | 0.0 | 3.2 | 0.00 | 0.05 | 0.00 | 70 | 1011.2 |
| 20260509162006 | 22 | 219 | 0.0 | 3.2 | 0.00 | 0.05 | 0.00 | 70 | 1011.3 |
| 20260509161505 | 22 | 219 | 0.0 | 3.2 | 0.00 | 0.05 | 0.00 | 76 | 1011.2 |
| 20260509161003 | 22 | 222 | 0.0 | 1.6 | 0.00 | 0.05 | 0.00 | 78 | 1011.1 |
| 20260509160502 | 21 | 222 | 0.0 | 3.2 | 0.00 | 0.05 | 0.00 | 83 | 1011.1 |
| 20260509160104 | 21 | 222 | 0.0 | 3.2 | 0.00 | 0.05 | 0.00 | 87 | 1011.1 |
| 20260509155559 | 21 | 161 | 0.0 | 0.0 | 0.00 | 0.05 | 0.00 | 89 | 1011.1 |
| 20260509155058 | 21 | 161 | 0.0 | 0.0 | 0.00 | 0.05 | 0.00 | 91 | 1011.1 |
| 20260509154557 | 20 | 161 | 0.0 | 0.0 | 0.00 | 0.05 | 0.00 | 92 | 1011.0 |
| 20260509154057 | 20 | 161 | 0.0 | 0.0 | 0.00 | 0.05 | 0.00 | 93 | 1011.0 |
| 20260509153553 | 19 | 161 | 0.0 | 0.0 | 0.00 | 0.05 | 0.00 | 94 | 1010.9 |
| 20260509153052 | 18 | 161 | 0.0 | 1.6 | 0.00 | 0.05 | 0.00 | 94 | 1011.0 |
| 20260509152550 | 18 | 161 | 0.0 | 1.6 | 0.00 | 0.05 | 0.00 | 95 | 1011.0 |
| 20260509152049 | 18 | 161 | 0.0 | 0.0 | 0.00 | 0.05 | 0.00 | 95 | 1011.0 |
| 20260509151548 | 18 | 161 | 0.0 | 1.6 | 0.00 | 0.05 | 0.00 | 95 | 1011.0 |
| 20260509151045 | 17 | 161 | 0.0 | 1.6 | 0.00 | 0.05 | 0.00 | 95 | 1011.2 |
| 20260509150543 | 17 | 161 | 0.0 | 0.0 | 0.00 | 0.05 | 0.00 | 95 | 1011.2 |
| 20260509150043 | 17 | 161 | 0.0 | 0.0 | 0.00 | 0.05 | 0.00 | 95 | 1011.3 |
| 20260509145541 | 17 | 161 | 0.0 | 0.0 | 0.00 | 0.05 | 0.00 | 95 | 1011.3 |
| 20260509145041 | 16 | 161 | 0.0 | 0.0 | 0.00 | 0.05 | 0.00 | 95 | 1011.3 |
| 20260509144541 | 16 | 161 | 0.0 | 0.0 | 0.00 | 0.05 | 0.00 | 95 | 1011.3 |
| 20260509144036 | 16 | 161 | 0.0 | 0.0 | 0.00 | 0.05 | 0.00 | 95 | 1011.3 |
| 20260509143535 | 15 | 161 | 0.0 | 0.0 | 0.00 | 0.05 | 0.00 | 95 | 1011.4 |
| 20260509143034 | 15 | 161 | 0.0 | 0.0 | 0.00 | 0.05 | 0.00 | 95 | 1011.3 |
| 20260509142533 | 15 | 161 | 0.0 | 0.0 | 0.00 | 0.05 | 0.00 | 95 | 1011.2 |
| 20260509142034 | 15 | 161 | 0.0 | 0.0 | 0.00 | 0.05 | 0.00 | 95 | 1011.2 |
| 20260509141532 | 15 | 161 | 0.0 | 1.6 | 0.00 | 0.05 | 0.00 | 95 | 1011.2 |
| 20260509141029 | 14 | 161 | 0.0 | 1.6 | 0.00 | 0.05 | 0.00 | 95 | 1011.2 |
| 20260509140527 | 14 | 161 | 0.0 | 0.0 | 0.00 | 0.05 | 0.00 | 95 | 1011.1 |
| 20260509140026 | 13 | 161 | 0.0 | 0.0 | 0.00 | 0.05 | 0.00 | 95 | 1011.0 |
| 20260509135526 | 13 | 161 | 0.0 | 0.0 | 0.00 | 0.05 | 0.00 | 95 | 1011.1 |
| 20260509135025 | 13 | 161 | 0.0 | 0.0 | 0.00 | 0.05 | 0.00 | 95 | 1011.0 |
| 20260509134525 | 12 | 161 | 0.0 | 0.0 | 0.00 | 0.05 | 0.00 | 95 | 1011.0 |
| 20260509134023 | 12 | 161 | 0.0 | 0.0 | 0.00 | 0.05 | 0.00 | 94 | 1010.9 |
| 20260509133522 | 12 | 161 | 0.0 | 0.0 | 0.00 | 0.05 | 0.00 | 94 | 1010.8 |
| 20260509133025 | 11 | 161 | 0.0 | 0.0 | 0.00 | 0.05 | 0.00 | 94 | 1010.7 |
| 20260509132523 | 11 | 161 | 0.0 | 0.0 | 0.00 | 0.05 | 0.00 | 94 | 1010.7 |
| 20260509132021 | 11 | 161 | 0.0 | 0.0 | 0.00 | 0.05 | 0.00 | 94 | 1010.7 |
| 20260509131522 | 11 | 161 | 0.0 | 0.0 | 0.00 | 0.05 | 0.00 | 94 | 1010.7 |